Orbital Elements at Epoch 2459000.5 (2020-May-31.0) TDB
Reference: JPL 19 (heliocentric ecliptic J2000)
Element | Value | Uncertainty (1-sigma) | Units |
e | .2496039285841689 | 4.2154e-08 | |
a | 2.588960340807159 | 1.7873e-08 | au |
q | 1.942745668793083 | 1.1384e-07 | au |
i | 12.6013555780285 | 1.0282e-05 | deg |
node | 348.7177772523249 | 1.5568e-05 | deg |
peri | 74.02491820239068 | 3.0028e-05 | deg |
M | 89.97357008895482 | 2.4752e-05 | deg |
tp | 2458620.223948394267 (2019-May-16.72394839) | 0.00010195 | TDB |
period | 1521.551033739292 4.17 | 1.5756e-05 4.314e-08 | d yr |
n | .2366006739289453 | 2.4501e-09 | deg/d |
Q | 3.235175012821234 | 2.2334e-08 | au |
|
| | Orbit Determination Parameters
Additional Information
|